Wind_Speed
39 32 28 27 29 33 36 39 40 42 44 47 49 50 51 52 52 53 54 54 55 55 54 52 50 48 47 46 46 46 46 46 46 45 45 45 45 45 46 47 48 48 48 48 48 48 48 49 49 50 51 51 52 52 53 53 53 53 53 53 54 54 55 55 56 57 57 58 58 59 60 60 61 61 61 61 61 60 60 60 59 59 59 59 59 59
43 37 30 26 25 27 31 35 36 37 38 40 42 45 46 47 48 49 49 49 48 47 46 44 43 43 44 45 47 48 48 47 47 46 46 46 46 46 46 46 47 48 48 48 48 48 48 48 49 49 50 51 51 51 51 51 51 52 52 53 54 55 56 57 58 58 59 59 60 60 60 61 61 61 61 60 60 59 59 59 59 59 59 59 60 60
46 43 37 30 25 23 25 28 30 32 33 35 37 40 42 43 43 43 43 43 43 42 41 41 41 42 44 46 48 49 49 48 47 47 46 45 45 45 45 46 46 47 47 47 47 47 47 47 48 49 49 49 49 49 49 50 50 51 52 53 54 56 57 58 59 60 60 61 61 61 61 61 61 60 60 59 59 59 59 59 59 60 60 60 61 61
45 46 43 38 32 26 23 22 23 25 28 30 33 36 38 39 40 40 41 41 41 40 40 40 41 42 45 47 49 49 49 48 47 46 46 45 44 44 44 45 46 46 46 46 46 46 46 47 47 48 48 48 48 48 49 49 50 51 52 54 55 57 58 59 60 61 61 61 61 61 61 61 60 60 59 59 59 59 60 60 60 61 61 62 62 63
42 44 45 44 40 35 30 26 24 23 24 26 28 31 34 36 37 39 39 40 40 40 40 40 42 44 47 49 50 49 48 47 46 46 46 45 44 44 44 45 45 46 46 46 46 46 46 46 46 47 47 47 48 48 49 50 52 53 54 56 57 58 59 60 60 61 61 61 61 60 60 60 60 60 60 60 60 60 61 61 62 62 63 63 64 64
39 41 44 44 44 41 38 36 33 32 29 28 27 28 30 32 34 36 37 38 39 39 40 42 45 48 50 51 50 48 46 45 46 46 46 45 44 44 44 45 45 46 46 46 46 46 46 46 46 46 47 47 49 50 51 53 54 55 57 58 58 59 59 59 59 59 59 59 59 59 59 59 59 59 60 60 61 61 62 62 63 63 64 65 65 66
36 38 40 42 42 42 41 41 40 39 37 34 32 31 31 32 34 35 36 37 39 41 43 46 49 51 51 50 49 46 45 45 45 46 46 46 45 45 46 46 46 46 46 46 46 46 46 46 46 47 48 49 51 53 54 55 56 57 57 57 57 57 57 57 57 57 57 58 58 58 58 59 59 60 60 61 61 62 63 63 64 65 65 66 67 67
33 35 37 38 38 39 40 40 40 39 38 37 36 35 35 36 37 37 38 40 42 44 47 49 51 51 50 49 47 46 45 45 46 47 48 48 48 48 48 48 48 48 48 47 46 46 46 47 48 49 50 52 53 54 54 55 55 55 55 55 55 55 55 55 56 56 56 57 57 58 59 59 60 60 61 62 62 63 64 64 65 66 66 67 67 68
31 33 34 36 36 37 38 39 39 38 38 37 37 37 38 39 39 40 42 43 45 47 48 49 49 49 48 47 46 46 46 47 48 49 50 50 51 51 51 51 51 50 48 46 46 46 47 49 50 51 52 52 53 53 53 53 53 53 53 53 54 54 54 55 55 56 57 57 58 59 59 60 61 61 62 63 63 64 64 65 66 66 67 67 68 68
29 31 33 35 36 37 37 38 38 37 37 37 37 38 39 40 41 42 44 45 46 47 48 48 47 47 46 46 46 46 47 48 49 50 51 51 52 51 51 50 49 48 46 46 46 47 49 51 52 52 53 52 52 52 52 53 53 53 53 53 54 54 55 56 56 57 57 58 59 59 60 61 61 62 62 63 63 64 65 65 66 66 67 67 68 68
28 30 32 34 35 36 36 36 36 37 37 37 38 38 39 40 41 42 43 44 44 45 45 45 45 46 46 46 46 46 47 47 48 48 49 48 48 47 47 47 46 46 46 47 48 49 51 51 52 52 52 52 52 52 52 53 53 53 54 54 55 55 56 56 57 58 58 59 59 60 60 61 61 62 62 63 63 64 64 65 65 66 66 67 67 68
25 28 30 32 33 34 34 35 35 36 37 37 37 38 39 40 40 41 42 42 43 43 44 44 45 45 46 45 45 45 45 45 45 44 44 44 44 44 44 45 46 47 48 49 50 50 51 51 51 51 51 52 52 52 53 53 54 54 55 55 55 56 57 57 57 58 59 59 59 60 60 60 61 61 62 62 63 63 64 64 65 65 66 66 67 68
23 25 27 29 30 32 33 33 34 35 35 36 36 36 37 38 39 40 41 41 42 43 43 44 44 45 44 44 43 42 42 42 41 41 41 41 42 43 44 45 46 48 48 49 49 50 50 50 51 51 52 52 53 53 53 54 54 55 55 56 56 57 57 58 58 58 59 59 59 60 60 60 60 61 61 62 62 63 63 64 64 65 65 66 66 67
22 23 25 26 28 29 30 31 32 33 33 34 35 36 36 38 38 39 40 41 42 42 43 43 42 42 42 42 41 41 40 40 40 40 41 41 42 43 44 45 46 47 48 49 49 50 50 51 52 52 53 53 54 54 54 55 55 56 56 57 57 57 58 58 58 58 59 59 59 59 60 60 60 61 61 61 62 62 63 63 64 64 65 65 65 66
20 22 23 24 26 27 28 29 30 31 32 33 34 36 37 38 39 39 40 40 41 41 41 40 40 40 39 39 39 39 39 39 39 40 41 42 43 43 44 46 47 48 49 49 50 51 51 52 53 53 54 54 55 55 55 56 56 57 57 57 57 58 58 58 58 58 59 59 59 59 59 60 60 60 61 61 61 62 62 62 63 63 63 63 63 64
21 22 23 24 25 26 27 29 30 31 32 33 34 35 36 37 37 38 38 38 38 37 37 37 37 37 37 37 37 37 38 38 39 40 42 43 44 45 46 47 48 49 50 50 51 52 53 53 54 54 55 55 55 56 56 56 57 57 57 58 58 58 58 58 58 58 58 58 59 59 59 59 60 60 60 60 61 61 61 61 61 61 61 61 61 61
22 23 24 25 26 27 27 29 30 30 31 32 33 33 34 34 34 34 34 34 34 34 34 34 35 35 36 37 38 38 39 40 41 42 44 45 46 47 47 49 50 51 51 52 52 53 54 54 55 55 55 56 56 56 57 57 57 57 58 58 58 58 58 58 58 58 58 58 58 58 59 59 59 59 59 59 59 59 59 59 59 59 59 59 59 59
21 22 23 23 24 25 26 27 28 28 29 30 30 31 31 31 31 31 32 32 33 34 34 35 36 37 38 39 40 40 41 42 43 44 46 47 48 48 49 50 51 52 53 53 53 54 55 55 55 56 56 56 57 57 57 57 57 58 58 58 58 58 58 58 58 58 58 58 58 58 58 58 58 58 58 58 58 58 57 57 57 57 57 57 57 57
17 18 19 19 21 22 23 24 25 26 27 27 28 29 29 30 31 32 33 34 35 35 36 37 38 39 40 41 42 43 43 44 45 46 47 48 49 50 50 51 52 53 54 54 54 55 55 56 56 56 57 57 57 57 57 57 58 58 58 58 58 57 57 57 57 57 57 57 57 57 57 57 56 56 56 56 56 55 55 55 55 55 55 56 56 56
17 17 18 19 19 21 22 23 24 25 26 27 29 30 31 32 33 34 35 36 37 38 39 39 40 41 42 43 44 44 45 46 47 48 49 50 50 51 51 53 54 54 55 55 55 56 56 57 57 57 57 57 57 57 57 57 57 57 57 57 57 57 57 57 57 57 56 56 56 56 55 55 55 55 54 54 54 53 53 53 53 54 54 54 55 55
20 20 21 21 22 23 24 25 26 27 28 30 31 32 33 34 35 36 37 38 38 39 40 41 42 43 43 44 45 46 46 47 48 50 50 51 52 52 53 54 54 55 55 56 56 56 57 57 57 57 57 57 57 57 57 57 57 57 57 57 57 57 57 56 56 56 55 55 55 54 54 53 53 53 52 52 52 51 51 51 52 52 52 53 53 54
23 23 24 24 25 26 27 27 28 29 31 32 32 33 34 35 36 37 38 39 40 41 42 42 43 44 45 45 46 47 47 48 50 51 52 52 53 53 53 54 55 56 56 56 56 56 57 57 57 57 57 57 57 57 57 57 57 57 57 57 56 56 56 55 55 54 54 54 53 53 52 52 51 50 50 50 49 49 49 50 50 50 51 51 52 52
24 25 25 26 27 27 28 29 30 31 32 33 34 34 35 36 37 38 39 40 41 42 42 43 44 45 46 47 47 48 49 49 50 51 52 53 53 53 54 54 55 56 56 56 56 57 57 57 57 57 57 57 57 57 57 57 57 57 57 56 56 55 55 54 53 53 52 52 51 51 50 49 49 48 48 48 48 48 48 48 49 49 50 50 51 51
25 26 26 27 27 28 29 30 31 32 32 33 34 35 36 37 38 39 40 41 42 43 44 44 45 46 47 48 48 49 50 50 51 52 53 53 54 54 54 55 55 56 56 57 57 57 57 57 57 57 57 57 57 57 57 57 56 56 56 55 54 54 53 53 52 51 51 50 50 49 48 47 47 47 46 46 47 47 47 47 48 48 49 49 49 50
26 27 27 28 28 29 30 31 31 32 33 34 35 36 37 38 39 40 41 42 43 44 45 46 46 47 48 48 49 50 50 51 52 53 53 54 54 55 55 55 55 56 57 57 57 57 57 57 57 57 57 57 57 56 56 56 55 55 54 54 53 52 52 51 50 50 49 48 48 47 46 46 45 45 45 46 46 46 46 47 47 47 48 48 48 49
27 28 28 29 30 30 31 32 33 34 35 36 37 38 39 40 41 42 43 44 44 45 46 47 47 48 49 49 50 50 51 52 52 53 53 54 55 55 55 55 55 56 57 57 57 57 57 57 57 57 56 56 56 55 55 54 54 53 53 52 51 51 50 49 49 48 47 47 46 45 45 44 44 44 45 45 45 46 46 46 46 47 47 47 47 47
29 30 30 31 31 32 33 34 35 35 36 37 38 39 40 41 42 43 44 45 46 46 47 48 48 49 50 50 50 51 51 52 52 53 53 54 55 55 55 55 55 56 56 57 57 56 56 56 56 56 55 55 55 54 54 53 52 52 51 50 50 49 49 48 47 47 46 45 45 44 44 44 44 44 44 45 45 45 45 46 46 46 46 46 46 46
31 31 32 32 33 34 35 35 36 37 38 39 40 41 42 43 44 44 45 46 47 47 48 49 49 50 50 50 51 51 51 52 52 52 53 54 55 55 55 55 55 56 56 56 57 56 56 55 55 55 54 54 53 53 52 51 51 50 50 49 48 48 47 47 46 45 45 44 44 44 44 44 44 44 44 45 45 45 45 45 45 45 45 45 45 45
32 33 33 34 34 35 36 37 38 39 40 41 42 42 43 44 45 46 47 47 48 48 49 50 50 50 51 51 52 52 52 52 52 53 53 54 55 55 56 56 56 56 55 56 56 56 55 55 54 53 53 53 52 51 51 50 49 49 48 48 47 47 46 46 45 45 44 44 44 44 44 44 44 44 44 45 45 45 45 45 45 45 45 44 44 44
33 34 35 35 36 37 38 39 40 41 42 42 43 44 45 46 47 48 48 49 49 50 50 51 51 51 52 52 53 53 53 53 53 53 54 54 55 56 56 56 56 55 55 54 54 55 55 54 53 52 51 51 50 50 49 49 48 48 47 47 46 46 46 45 45 45 45 44 44 44 44 44 44 44 45 45 45 45 45 46 46 45 45 44 44 43
35 36 36 37 38 39 39 40 41 42 43 44 45 46 47 48 49 49 50 50 51 51 51 52 52 53 53 53 54 54 54 54 54 54 54 54 55 56 56 55 55 55 54 53 52 52 53 53 52 51 50 49 49 49 48 48 47 47 46 46 46 46 45 45 45 45 45 45 45 45 45 45 45 45 45 45 45 46 46 46 46 45 45 44 43 43
36 37 38 39 39 40 41 42 43 44 45 46 47 48 49 49 50 51 51 52 52 52 53 53 53 54 54 55 55 56 56 56 56 56 55 55 56 56 56 55 54 54 54 53 51 50 50 51 51 50 48 48 47 47 47 47 46 46 46 45 45 45 45 45 45 45 45 46 46 46 46 46 45 45 45 46 46 46 46 46 46 46 45 44 43 42
38 39 39 40 41 42 43 44 45 46 47 48 48 49 50 51 51 52 52 53 53 54 54 55 55 56 56 57 57 58 58 58 58 57 57 56 56 56 55 54 54 53 53 52 50 49 48 48 49 48 47 47 47 46 46 46 46 45 45 45 45 45 46 46 46 46 46 46 46 47 46 46 46 46 46 46 46 46 47 47 47 46 46 45 44 43
39 40 41 42 43 44 45 46 47 47 48 49 50 51 51 52 52 53 54 54 55 55 56 56 57 57 58 59 59 60 60 60 59 59 58 56 56 55 55 54 53 52 51 50 49 48 47 47 46 46 46 46 46 46 46 46 46 46 45 45 45 46 46 46 46 46 47 47 47 47 47 47 47 47 47 47 47 47 47 47 47 47 46 45 44 43
41 41 42 43 44 45 46 47 48 49 50 50 51 52 52 53 54 54 55 56 56 57 58 58 59 59 60 60 60 61 61 61 60 59 58 56 55 54 54 53 52 51 50 49 48 47 46 45 45 45 45 45 45 46 46 46 46 46 46 46 46 46 46 47 47 47 47 47 48 48 48 48 48 47 47 47 47 47 47 47 47 47 46 45 44 43
42 43 44 45 46 46 48 48 49 50 51 52 52 53 54 54 55 56 56 57 58 59 60 60 61 61 61 61 61 61 61 61 60 59 57 56 54 53 52 51 51 50 48 48 47 46 45 45 44 44 44 44 44 45 45 46 46 46 46 46 46 47 47 47 47 47 47 48 48 48 48 48 48 48 48 48 47 47 47 47 47 47 47 46 44 43
44 44 45 46 47 48 49 50 50 51 52 53 53 54 55 56 56 57 58 59 60 60 61 61 62 62 62 62 61 61 60 60 59 58 56 55 53 51 50 50 49 48 47 46 46 45 44 44 44 44 43 43 44 44 45 45 45 46 46 46 47 47 47 48 48 48 48 48 48 49 49 49 49 49 48 48 48 48 48 48 47 47 47 46 44 43
45 46 46 47 48 49 50 51 52 52 53 54 55 55 56 57 58 59 59 60 61 61 61 62 62 61 61 61 61 60 59 59 58 56 55 53 51 50 49 48 48 47 46 45 45 45 44 44 43 43 44 44 44 44 44 45 45 45 46 46 47 47 48 48 48 48 48 49 49 49 49 49 49 49 49 49 48 48 48 48 48 47 47 46 44 43
46 47 48 48 49 50 51 52 53 54 54 55 56 56 57 58 59 60 60 61 61 61 61 61 61 60 60 60 59 58 58 57 56 54 53 52 50 49 48 47 47 46 45 45 44 44 44 44 44 44 44 44 44 44 44 44 45 45 46 46 47 47 48 48 48 49 49 49 49 49 50 50 50 50 49 49 49 48 48 48 48 47 46 45 44 43
47 48 49 49 50 51 52 53 54 55 55 56 57 58 59 59 60 61 61 61 61 61 60 60 60 59 59 58 58 57 56 55 54 53 51 50 49 48 47 46 45 45 45 45 44 44 44 44 44 44 44 44 44 44 44 44 45 45 46 46 46 47 48 48 49 49 49 50 50 50 50 50 50 50 50 49 49 49 48 48 48 47 46 45 44 43
48 48 49 50 51 52 53 54 55 56 56 57 58 59 60 60 61 61 61 60 60 60 59 59 58 58 58 57 56 55 54 53 52 51 50 49 48 47 46 45 45 45 45 45 45 44 44 44 44 45 44 44 44 44 44 45 45 46 46 46 47 47 48 48 49 49 50 50 50 50 51 51 51 50 50 50 49 49 49 48 48 47 46 45 44 42
48 49 50 51 52 53 54 55 56 57 57 58 59 60 60 60 60 60 60 59 59 58 57 57 56 56 56 55 55 54 53 52 50 49 48 47 47 46 45 45 45 44 44 45 45 45 45 45 45 45 45 45 45 44 45 45 46 46 47 47 47 47 48 48 49 50 50 51 51 51 51 51 51 51 50 50 50 50 49 48 48 47 46 45 43 42
49 50 51 52 53 54 55 56 57 57 58 59 60 60 60 60 59 59 58 58 57 56 56 55 55 54 53 53 53 52 51 50 49 48 47 47 46 45 45 45 44 44 44 44 45 45 45 45 45 45 45 45 45 45 45 45 46 47 47 48 48 48 48 49 49 50 51 51 52 52 52 52 51 51 51 50 50 50 49 48 48 46 45 44 43 42
50 51 52 53 54 55 56 57 57 58 59 59 59 59 59 59 58 57 57 56 55 55 54 54 53 53 52 51 51 50 50 49 48 47 46 46 45 45 45 45 44 44 44 44 45 45 45 45 45 45 45 45 45 45 45 46 46 47 48 48 48 48 49 49 50 51 51 52 52 52 53 52 52 51 51 50 50 50 49 48 47 46 45 44 43 42
51 52 53 54 55 56 56 57 58 59 59 59 59 59 58 57 56 56 55 55 54 54 53 52 52 51 50 50 49 48 48 48 47 46 46 45 45 44 44 44 44 44 44 44 45 45 45 45 45 45 45 45 45 45 46 46 47 47 48 48 49 49 50 50 51 51 52 52 53 53 53 53 52 52 51 51 50 50 49 48 46 45 44 43 42 41
52 53 54 55 56 56 57 58 58 59 59 59 58 57 56 56 55 54 54 54 53 53 52 51 50 49 48 48 47 47 47 46 46 46 45 45 44 44 44 44 44 44 44 44 44 44 44 45 45 45 45 45 45 45 46 46 47 47 48 48 49 49 50 51 51 52 53 53 53 53 54 53 53 52 52 51 50 49 48 47 45 44 43 42 42 41
53 54 55 55 56 57 58 58 59 59 58 58 57 56 55 54 54 54 53 53 53 52 51 50 49 48 47 46 46 45 45 45 45 45 45 44 44 44 44 44 44 44 44 44 44 44 44 44 44 44 45 45 45 45 46 47 47 48 48 49 49 50 50 51 52 53 53 54 54 54 54 54 53 53 52 51 50 48 47 45 44 43 42 41 41 41
54 54 55 56 57 58 58 58 58 58 57 56 55 55 54 53 53 53 53 53 52 51 50 49 48 47 46 45 45 44 44 44 44 44 44 44 44 44 44 44 44 44 44 44 44 44 44 44 44 44 45 45 45 46 46 47 47 48 49 49 50 50 51 52 53 53 54 54 55 55 55 55 54 53 52 51 49 47 45 43 42 41 41 40 40 40
54 55 56 57 57 58 58 58 58 57 56 55 54 53 53 53 52 52 52 52 52 51 50 48 47 46 45 44 44 43 43 43 43 43 43 43 43 44 44 44 44 44 44 44 44 44 44 44 44 44 45 45 46 46 47 47 48 48 49 50 50 51 52 53 54 54 55 55 55 56 56 55 55 54 52 50 48 45 43 42 40 40 39 39 39 39
55 56 56 57 58 58 58 58 57 56 55 54 53 53 52 52 52 52 52 52 51 50 49 47 46 45 44 43 43 42 42 42 42 42 43 43 43 43 43 43 43 44 44 44 44 44 44 43 44 44 45 45 46 47 47 47 48 49 49 50 51 52 53 54 54 55 56 56 56 56 56 55 54 53 51 49 46 44 41 40 39 38 38 38 38 38
55 56 57 58 58 58 58 57 56 55 54 53 52 52 52 52 52 52 52 51 51 50 48 47 46 44 43 43 42 42 41 41 41 42 42 42 43 43 43 43 43 43 43 43 43 43 43 43 43 44 44 45 46 47 47 48 48 49 50 51 52 53 54 55 55 56 56 56 56 55 54 53 52 51 49 47 44 42 40 38 37 37 37 37 38 38
Wind_Direction
263 267 273 271 264 258 255 254 254 254 253 252 253 253 254 256 257 259 260 261 262 264 266 269 271 272 274 276 278 279 280 281 281 280 279 278 276 275 274 274 275 276 277 277 277 276 276 275 275 275 275 275 275 274 274 275 275 275 275 276 276 275 275 275 274 274 274 274 274 274 274 274 274 274 275 275 275 275 275 274 274 273 273 272 272 272
262 264 269 272 267 258 252 250 251 252 253 253 254 254 255 257 258 260 261 263 264 265 266 268 269 270 273 276 278 280 281 281 281 280 279 277 276 275 273 273 274 275 275 276 276 275 275 276 276 276 276 276 275 275 275 275 275 275 275 276 276 276 276 276 276 276 276 276 276 276 276 276 276 276 276 276 276 275 275 275 274 274 273 273 273 272
263 262 264 267 268 262 252 246 243 243 244 247 249 251 254 256 259 260 261 262 262 262 262 263 265 269 273 277 280 281 281 281 280 279 278 277 276 274 273 273 273 274 274 274 275 275 276 276 277 277 277 276 276 276 275 275 275 275 275 275 275 275 275 275 276 276 277 277 277 277 277 277 277 277 276 276 276 276 275 275 275 274 274 273 273 273
265 262 262 264 265 265 260 251 244 240 240 241 243 246 250 254 257 259 259 259 258 258 258 260 264 269 275 279 281 281 281 280 279 278 278 277 276 274 274 273 273 274 274 274 275 275 276 276 277 277 277 277 276 276 276 275 275 274 274 274 274 274 274 275 275 276 276 276 277 277 277 276 276 276 276 276 276 276 275 275 275 274 274 274 273 273
266 263 262 263 264 265 265 262 259 255 251 247 245 245 247 251 253 255 255 255 255 255 257 261 267 273 277 280 281 281 280 279 278 278 277 276 275 274 273 273 274 274 275 275 276 276 276 276 276 276 276 276 276 275 275 274 274 274 273 273 273 273 274 274 275 275 276 276 276 276 276 276 276 276 276 276 276 275 275 275 275 274 274 274 273 273
266 264 263 263 264 266 267 269 271 272 270 265 260 255 253 253 254 255 255 255 256 259 262 268 273 277 280 281 281 280 279 278 277 277 276 276 274 273 273 274 275 276 277 277 277 277 277 277 276 276 276 275 275 274 274 273 273 273 273 273 273 274 274 275 275 276 276 276 276 276 276 276 276 276 276 276 276 276 275 275 275 274 274 274 273 273
265 263 262 263 265 267 269 273 277 279 279 277 274 269 266 263 262 262 263 263 264 266 270 274 277 279 281 281 280 278 277 276 275 275 275 275 274 274 275 276 277 278 279 278 278 278 279 278 278 277 276 275 275 274 273 273 273 273 273 274 274 275 275 276 276 277 277 277 277 277 277 277 277 277 276 276 276 276 275 275 275 274 274 274 273 273
264 262 262 264 266 269 272 276 279 281 281 280 279 277 275 273 272 272 271 271 271 272 274 277 278 280 280 280 279 277 275 273 273 273 273 274 274 275 276 277 279 279 280 280 280 280 280 280 279 277 276 276 275 275 274 274 275 275 275 276 276 277 277 278 278 278 278 278 278 277 277 277 277 277 276 276 276 276 275 275 275 275 274 274 274 273
262 262 263 265 268 272 275 278 280 281 281 280 279 278 277 277 276 275 275 275 275 275 276 278 279 280 280 280 279 277 275 273 272 271 272 273 274 276 277 279 280 281 281 281 280 280 279 279 278 277 277 277 277 277 277 277 278 278 278 279 279 279 279 279 278 278 278 278 277 277 277 277 277 277 276 276 276 276 276 275 275 275 275 274 274 274
261 262 264 267 271 274 277 279 280 280 280 280 278 277 277 276 276 276 275 276 276 277 278 279 279 280 280 280 280 278 277 275 274 274 274 275 276 278 279 281 282 283 282 281 280 279 278 278 278 278 278 279 279 279 279 280 280 280 280 280 280 279 279 279 278 278 278 278 278 277 277 277 277 277 277 277 277 276 276 276 276 276 275 275 275 275
261 261 264 268 271 274 276 278 279 279 279 279 278 277 276 276 276 276 276 277 277 278 278 279 280 281 281 281 281 280 279 279 278 278 279 280 280 282 283 284 284 284 283 282 280 279 279 279 279 279 280 280 280 280 281 281 281 281 281 280 280 280 279 279 279 279 278 278 278 278 278 278 278 278 278 278 278 278 277 277 277 277 276 276 276 276
265 263 264 267 270 272 274 276 277 278 278 279 279 278 278 277 277 278 278 278 279 279 280 280 281 282 282 283 282 282 282 282 282 283 284 284 284 285 285 285 285 284 283 282 281 280 280 281 281 281 281 281 282 282 282 282 282 281 281 281 281 280 280 280 280 279 279 279 279 279 279 279 279 279 279 279 279 279 279 278 278 278 278 277 277 276
272 268 267 267 269 271 273 274 276 277 278 279 280 281 281 280 280 280 280 280 280 281 281 282 282 283 283 283 283 284 284 284 285 286 286 286 286 285 284 284 283 282 282 282 282 282 282 282 282 282 282 282 282 282 282 282 282 282 282 281 281 281 281 281 281 281 281 281 281 281 281 281 281 281 281 280 280 280 280 280 279 279 279 278 278 277
279 276 273 272 272 273 274 276 277 279 280 281 282 282 282 282 282 282 282 282 282 282 282 283 283 283 284 284 285 285 286 286 287 287 286 286 285 284 283 283 282 282 282 282 282 283 283 283 283 283 283 283 283 283 283 283 282 282 282 282 282 282 282 282 282 282 282 282 282 282 282 282 282 282 282 282 282 281 281 281 281 280 280 279 279 278
286 284 282 281 280 279 280 280 281 282 283 283 284 284 284 283 283 283 282 282 283 283 284 284 284 285 285 286 287 287 287 288 287 287 286 285 285 284 284 284 283 283 283 283 283 283 284 284 283 283 284 284 283 283 283 283 283 283 283 282 282 282 283 283 283 283 283 284 284 284 284 284 284 284 283 283 283 283 283 282 282 282 281 280 280 279
292 290 289 288 287 286 285 285 285 285 285 285 285 284 284 283 283 283 283 284 284 285 286 286 287 287 288 288 288 289 289 288 288 287 287 286 285 285 285 285 284 284 284 284 284 284 284 284 284 284 284 284 284 284 283 283 283 283 283 283 283 283 284 284 284 284 285 285 285 285 285 285 285 285 285 285 285 284 284 284 283 283 282 281 280 280
294 293 292 291 290 289 288 288 287 287 286 286 285 285 285 285 285 285 286 286 287 288 288 289 289 290 290 290 290 290 290 289 289 288 287 286 286 286 286 285 285 285 285 285 285 284 284 284 284 284 284 284 284 284 284 284 284 284 284 284 284 285 285 285 285 286 286 286 286 286 286 286 286 286 286 286 286 285 285 284 283 283 282 281 280 279
295 293 292 291 290 290 289 289 288 288 287 287 286 286 286 287 288 289 289 290 290 290 291 291 291 291 291 291 291 291 290 290 289 288 287 286 286 286 286 285 285 285 285 285 285 285 285 284 284 284 284 284 284 284 284 285 285 285 285 285 285 286 286 286 286 287 287 287 287 287 287 287 287 287 287 286 286 285 285 284 283 282 281 280 279 279
302 299 297 294 293 291 290 289 289 288 288 289 289 290 290 291 292 292 292 292 292 292 292 292 292 292 292 291 291 291 291 290 289 288 287 287 287 287 286 286 285 285 285 285 285 285 285 285 285 285 285 285 285 285 285 285 285 286 286 286 286 286 287 287 287 287 288 288 288 288 288 288 288 287 287 286 286 285 284 283 282 281 281 280 279 278
310 307 304 301 298 296 294 293 293 293 293 293 294 294 294 294 294 294 294 294 293 293 293 292 292 292 292 291 291 291 291 290 289 288 287 287 287 287 287 286 286 286 286 286 286 286 286 286 286 286 286 286 286 286 286 286 286 286 286 287 287 287 288 288 288 288 288 288 288 288 288 288 288 287 287 286 285 284 283 282 282 281 280 279 278 277
310 308 305 303 302 300 299 298 297 297 297 296 296 296 296 295 295 294 294 294 293 293 293 293 292 292 292 291 291 291 291 290 289 288 288 288 288 288 288 287 287 287 287 286 286 286 286 286 286 286 286 286 286 287 287 287 287 287 287 287 288 288 288 288 289 289 289 289 289 288 288 288 287 287 286 285 285 284 283 282 281 281 280 279 278 278
308 307 306 304 303 302 301 300 299 299 298 297 297 296 296 295 295 295 294 294 293 293 293 293 293 292 292 292 292 291 291 290 289 289 289 288 288 288 288 288 287 287 287 287 287 287 287 287 287 287 287 287 287 287 287 287 287 287 287 288 288 288 288 289 289 289 289 288 288 288 288 287 287 286 286 285 284 284 283 282 282 281 281 280 279 278
307 306 305 304 303 302 301 300 300 299 298 297 297 296 296 296 295 295 294 294 294 294 294 293 293 293 293 292 292 292 291 291 290 290 289 289 289 289 288 288 288 288 288 288 288 288 287 287 287 287 287 287 287 287 287 287 287 287 287 288 288 288 288 288 288 288 288 288 288 288 287 287 287 286 286 285 285 284 284 284 283 283 282 281 281 280
305 304 304 303 302 301 301 300 299 299 298 298 297 297 297 297 296 296 295 295 295 295 295 295 294 294 294 294 293 293 292 292 291 291 290 290 289 289 289 289 289 288 288 288 288 288 288 287 287 287 287 287 287 287 287 287 287 287 287 287 287 287 287 287 287 287 287 287 287 288 287 287 287 287 287 286 286 286 286 285 285 285 284 283 282 281
305 304 304 303 302 302 301 301 300 300 300 299 299 299 299 298 298 298 298 297 297 297 296 296 295 295 295 294 294 293 293 293 292 291 291 291 290 290 289 289 289 288 288 288 288 288 287 287 287 287 287 286 286 286 286 286 286 286 286 286 286 286 286 286 287 287 287 287 287 288 288 288 288 288 288 288 288 288 288 288 288 287 286 285 284 282
306 306 305 305 304 304 303 303 302 302 302 301 301 301 301 300 300 299 299 299 298 298 297 297 296 296 295 295 294 294 293 293 292 292 291 291 290 290 289 289 289 288 288 288 287 287 287 286 286 286 286 286 286 285 285 285 285 285 285 285 285 285 285 286 286 287 287 288 288 288 288 289 289 289 289 289 289 290 290 290 290 289 288 287 285 283
308 307 307 306 306 306 305 305 304 304 303 303 303 303 302 302 301 300 300 299 299 299 298 297 297 296 296 295 295 294 294 293 293 292 292 291 290 290 289 289 289 288 288 287 287 287 286 286 286 286 286 285 285 285 284 284 284 284 284 284 284 285 285 286 286 287 287 288 288 289 289 289 290 290 290 291 291 292 292 292 292 291 290 288 286 284
308 308 308 307 307 307 306 306 305 305 305 304 304 304 303 303 302 301 301 300 300 299 299 298 298 297 297 296 295 294 294 294 293 293 292 291 290 290 290 289 289 288 288 288 287 287 286 286 286 285 285 284 284 284 283 283 283 283 283 284 284 284 285 286 287 287 288 288 289 289 290 290 290 291 291 292 293 293 294 294 294 293 291 289 287 285
309 308 308 308 307 307 307 307 306 306 306 305 305 305 304 304 303 302 302 302 301 300 300 299 299 298 297 297 296 295 295 294 294 293 293 292 291 290 290 290 289 288 288 288 287 287 286 285 285 285 284 284 283 283 282 282 282 282 283 283 284 284 285 286 287 288 288 289 290 290 290 291 291 292 292 293 294 295 296 296 296 295 293 291 288 286
309 309 308 308 308 308 308 307 307 307 307 307 306 306 306 305 304 304 303 303 302 301 301 300 299 299 298 298 297 296 296 295 295 294 293 292 291 290 290 290 289 288 288 287 286 286 285 285 284 284 283 283 282 281 281 281 281 282 282 283 284 285 286 287 288 288 289 290 290 291 291 292 292 293 293 294 295 296 297 298 297 296 295 292 290 287
309 309 309 309 308 308 308 308 308 308 308 308 307 307 307 306 306 305 305 304 303 302 302 301 300 300 299 298 297 297 296 296 295 295 294 292 291 290 290 289 288 288 287 286 285 284 284 284 283 283 282 281 281 280 280 280 280 281 282 283 284 285 286 287 288 289 290 291 291 292 292 292 293 294 295 296 297 298 299 299 299 298 296 294 291 289
309 309 309 309 309 309 309 309 309 309 309 309 308 308 307 307 306 306 305 305 304 303 302 302 301 300 299 299 298 297 297 296 296 295 294 292 291 290 289 288 287 287 286 285 283 283 282 282 282 282 281 280 279 279 279 279 280 281 282 283 284 285 287 288 289 290 291 291 292 292 293 293 294 295 296 297 298 299 300 300 300 300 298 296 293 291
309 309 309 309 309 309 309 309 309 309 309 309 309 309 308 308 307 306 306 305 305 304 303 302 301 301 300 299 298 297 296 296 295 295 293 292 290 289 288 287 286 285 285 284 283 282 281 281 281 281 280 279 279 279 279 279 280 281 282 283 285 286 287 288 289 290 291 292 292 293 294 294 295 296 297 298 299 300 301 301 301 300 299 297 294 292
309 309 310 310 310 310 310 310 310 310 310 310 309 309 309 308 307 307 306 306 305 304 304 303 302 301 300 299 298 297 296 295 295 294 293 291 290 288 288 286 285 284 284 283 282 281 280 280 279 280 280 280 279 279 279 280 281 282 283 284 285 286 288 289 290 291 291 292 293 294 294 295 296 297 297 298 299 300 301 302 302 301 299 297 295 292
310 310 310 310 310 310 310 310 310 310 310 310 310 309 309 308 308 307 307 306 305 305 304 303 302 300 299 298 297 296 295 295 294 293 292 291 289 288 287 285 285 284 283 282 281 280 279 279 278 278 278 279 280 280 280 281 282 283 284 285 286 287 288 289 290 291 292 293 293 294 295 295 296 297 297 298 299 300 301 301 301 301 299 297 295 292
310 310 310 310 310 311 311 311 311 311 311 310 310 310 309 309 308 308 307 306 305 305 304 302 301 300 299 298 296 295 295 294 294 293 291 290 289 288 286 285 284 283 282 281 280 279 278 278 277 277 277 277 279 280 281 282 283 284 284 285 286 287 288 289 290 291 292 293 293 294 295 295 296 297 297 298 299 300 300 301 301 300 299 297 294 292
310 310 310 311 311 311 311 311 311 311 311 311 310 310 309 309 308 308 307 306 305 304 303 302 301 300 298 297 296 295 294 294 293 292 291 290 289 287 286 285 284 283 281 280 280 279 278 277 277 276 276 276 277 278 280 282 283 284 285 286 287 288 289 289 290 291 292 292 293 294 294 295 296 296 297 298 298 299 300 300 300 299 298 296 294 291
311 311 311 311 311 312 312 312 312 311 311 311 310 310 310 309 308 308 307 306 305 304 303 302 301 299 298 297 296 295 294 293 293 292 291 290 288 287 285 284 283 282 281 280 279 278 278 277 276 276 276 276 276 277 278 280 282 283 285 286 287 288 289 289 290 291 291 292 293 293 294 294 295 296 296 297 298 298 299 299 299 298 297 295 293 290
311 311 312 312 312 312 312 312 312 312 311 311 311 310 310 309 309 308 307 306 305 304 303 302 301 299 298 297 296 295 294 293 292 291 290 289 288 287 285 284 282 281 280 279 279 278 277 277 276 276 276 276 276 277 278 279 280 282 283 285 286 287 288 289 290 290 291 291 292 292 293 294 294 295 296 296 297 297 297 298 297 297 296 294 291 289
311 312 312 312 313 313 313 313 312 312 312 311 311 311 310 310 309 308 307 307 306 304 303 302 301 300 298 297 296 295 294 293 292 291 290 288 287 286 285 283 282 281 280 279 278 278 277 277 277 276 276 276 276 277 278 278 279 280 281 283 284 285 287 288 288 289 290 290 291 292 292 293 294 294 295 295 296 296 296 296 296 295 294 292 290 287
312 312 313 313 313 313 313 313 313 312 312 312 311 311 311 310 309 309 308 307 306 305 304 303 301 300 299 297 296 295 294 292 291 290 289 288 286 285 284 282 281 280 279 279 278 278 278 277 277 277 277 277 277 277 278 278 279 280 281 281 282 283 285 286 287 288 289 289 290 291 292 292 293 293 294 294 295 295 295 295 294 294 292 290 288 285
313 313 313 313 314 314 314 313 313 313 312 312 312 311 311 311 310 309 308 308 307 306 305 303 302 300 299 297 296 294 293 292 290 289 288 287 285 284 283 282 281 280 279 279 279 278 278 278 278 278 278 278 278 278 278 279 279 280 280 281 281 282 283 284 285 287 288 288 289 290 291 291 292 292 293 293 293 294 294 293 293 292 290 288 286 283
313 314 314 314 314 314 314 314 313 313 313 313 312 312 312 311 310 310 309 308 307 306 305 304 302 301 299 297 296 294 293 291 290 288 287 286 285 283 282 281 281 280 280 279 279 279 279 279 279 279 279 279 279 279 279 280 280 280 281 281 282 282 283 284 285 286 287 287 288 289 290 290 291 291 292 292 292 292 292 292 291 290 288 286 284 281
314 314 314 315 315 315 314 314 314 314 314 313 313 313 312 312 311 310 310 309 308 307 306 305 303 301 299 297 295 294 292 290 289 287 286 285 284 283 282 281 281 280 280 280 280 280 280 280 280 280 280 280 280 280 280 281 281 281 281 282 282 283 283 284 284 285 286 287 288 289 289 290 290 291 291 291 291 291 291 290 289 287 286 284 281 279
314 315 315 315 315 315 315 315 315 314 314 314 314 313 313 312 312 311 311 310 309 309 307 306 304 302 299 297 295 293 291 290 288 287 285 284 284 283 282 281 281 281 280 280 280 280 280 281 281 281 281 281 282 282 282 282 282 282 282 283 283 284 284 284 285 285 286 287 287 288 289 289 289 290 290 290 290 289 289 288 287 285 283 281 279 277
315 315 315 316 316 316 316 316 315 315 315 314 314 314 313 313 312 312 312 311 311 310 309 307 304 301 298 296 294 292 290 289 288 287 285 284 283 283 282 282 281 281 281 281 281 281 281 282 282 282 283 283 283 283 283 283 283 283 283 284 284 284 285 285 286 286 286 287 287 288 288 289 289 289 289 289 288 288 287 286 284 282 280 279 277 275
316 316 316 316 316 316 316 316 316 316 315 315 314 314 314 313 313 313 313 313 312 311 310 308 305 302 299 296 294 292 290 288 287 286 286 285 284 283 283 282 282 282 282 282 282 282 283 283 283 284 284 284 284 284 284 284 284 284 284 285 285 285 286 286 286 286 287 287 287 288 288 288 288 288 288 288 287 286 285 283 282 280 278 276 275 274
316 317 317 317 317 317 317 317 316 316 316 315 315 314 314 314 314 314 314 314 313 312 311 308 306 303 299 297 294 291 289 288 287 286 286 285 285 284 284 283 283 284 284 284 284 284 285 285 285 285 286 285 285 285 285 285 285 285 285 286 286 286 286 287 287 287 287 288 288 288 288 288 288 288 287 287 286 284 283 281 279 277 275 274 272 271
317 317 317 318 318 318 317 317 317 316 316 315 315 315 314 315 315 315 315 315 314 313 311 309 306 303 300 297 294 292 290 288 287 286 286 285 285 285 285 285 285 285 286 286 286 286 286 287 287 287 287 287 287 286 286 286 286 287 287 287 287 288 288 288 288 288 288 288 288 288 288 288 288 287 286 285 284 282 280 278 276 274 273 271 270 269
317 318 318 318 318 318 318 318 317 317 316 316 315 315 315 315 316 316 316 316 315 314 312 310 307 304 300 297 295 292 290 288 287 286 286 286 286 286 286 286 286 287 287 287 287 287 288 288 288 288 288 288 288 288 288 288 288 289 289 289 289 289 289 289 289 289 289 289 289 289 288 288 287 286 285 284 282 280 278 276 273 272 270 269 268 268
318 318 319 319 319 318 318 318 317 317 316 316 316 316 316 316 317 317 317 317 316 315 313 311 308 304 301 298 295 292 290 289 288 287 287 286 286 286 287 287 287 287 288 288 288 288 289 289 289 289 289 289 289 289 290 290 290 290 291 291 291 291 291 290 290 290 289 289 288 288 287 287 286 285 284 282 281 278 276 273 271 269 268 267 267 266
Height
5632 5633 5633 5633 5634 5634 5635 5636 5637 5638 5638 5639 5640 5641 5642 5642 5643 5643 5644 5644 5644 5644 5645 5645 5645 5645 5645 5645 5645 5645 5645 5645 5645 5645 5645 5645 5645 5645 5645 5645 5645 5644 5644 5644 5644 5644 5644 5644 5643 5643 5643 5643 5642 5642 5641 5641 5641 5641 5640 5640 5639 5639 5638 5638 5638 5638 5637 5637 5637 5637 5637 5636 5636 5636 5636 5636 5635 5635 5635 5635 5635 5635 5635 5635 5635 5635
5628 5629 5630 5631 5631 5632 5633 5633 5634 5636 5636 5637 5638 5638 5639 5639 5639 5640 5640 5641 5641 5641 5641 5641 5641 5641 5641 5641 5641 5641 5641 5641 5641 5641 5641 5641 5641 5641 5641 5640 5640 5640 5640 5640 5639 5639 5639 5639 5639 5639 5638 5638 5638 5637 5637 5636 5636 5636 5635 5635 5634 5634 5633 5633 5633 5632 5632 5632 5632 5631 5631 5631 5631 5630 5630 5630 5630 5629 5629 5629 5629 5629 5629 5629 5629 5628
5625 5626 5626 5628 5629 5630 5631 5631 5631 5632 5633 5634 5634 5635 5635 5635 5636 5636 5637 5637 5637 5638 5638 5637 5637 5637 5637 5638 5638 5638 5637 5637 5637 5637 5637 5636 5636 5636 5636 5636 5636 5636 5636 5635 5635 5635 5635 5635 5635 5634 5634 5634 5633 5633 5632 5632 5632 5631 5631 5630 5630 5629 5629 5628 5628 5627 5627 5627 5626 5626 5626 5626 5625 5625 5625 5624 5624 5624 5623 5623 5623 5623 5623 5623 5623 5622
5622 5622 5623 5624 5626 5627 5628 5628 5629 5629 5630 5630 5630 5631 5631 5632 5632 5633 5633 5634 5634 5634 5634 5634 5634 5634 5634 5634 5634 5634 5634 5634 5633 5633 5633 5633 5633 5633 5632 5632 5632 5631 5631 5631 5631 5631 5631 5631 5631 5630 5630 5629 5629 5629 5628 5628 5627 5627 5626 5626 5625 5625 5624 5624 5623 5623 5622 5622 5621 5621 5621 5620 5620 5619 5619 5619 5619 5618 5618 5617 5617 5617 5616 5617 5617 5616
5619 5620 5620 5621 5622 5623 5625 5626 5626 5627 5628 5628 5628 5628 5629 5629 5630 5630 5630 5630 5630 5630 5630 5631 5631 5631 5631 5631 5631 5631 5630 5630 5630 5629 5629 5629 5629 5629 5629 5628 5628 5628 5627 5627 5627 5627 5627 5626 5626 5626 5626 5625 5625 5624 5624 5623 5622 5622 5621 5621 5621 5620 5619 5619 5618 5618 5617 5617 5616 5616 5615 5615 5615 5614 5614 5614 5613 5613 5612 5612 5611 5611 5611 5611 5611 5610
5616 5617 5617 5618 5619 5620 5621 5622 5623 5623 5624 5625 5625 5625 5626 5626 5626 5627 5627 5627 5627 5627 5627 5627 5627 5627 5627 5627 5627 5627 5627 5626 5626 5626 5626 5626 5625 5625 5625 5624 5624 5623 5623 5623 5623 5623 5622 5622 5622 5622 5621 5621 5620 5620 5619 5618 5618 5617 5616 5616 5616 5615 5615 5614 5613 5613 5612 5612 5611 5611 5610 5610 5609 5609 5608 5608 5607 5607 5606 5606 5606 5605 5605 5605 5604 5604
5613 5614 5615 5616 5617 5618 5619 5620 5620 5620 5620 5620 5621 5621 5622 5622 5623 5623 5624 5624 5624 5624 5624 5624 5624 5624 5624 5624 5624 5623 5623 5622 5622 5622 5622 5621 5621 5621 5621 5620 5620 5619 5619 5619 5619 5618 5618 5618 5617 5617 5616 5616 5615 5615 5614 5613 5613 5612 5612 5611 5611 5610 5609 5609 5608 5608 5607 5606 5606 5605 5605 5604 5603 5603 5603 5602 5601 5601 5601 5600 5600 5599 5598 5598 5598 5597
5611 5612 5613 5614 5616 5616 5617 5617 5617 5617 5617 5617 5617 5618 5618 5619 5619 5620 5620 5620 5621 5621 5621 5621 5621 5621 5620 5620 5620 5620 5619 5619 5618 5618 5618 5617 5617 5617 5616 5616 5616 5615 5615 5614 5614 5614 5613 5613 5612 5612 5611 5611 5611 5610 5609 5608 5608 5607 5606 5606 5606 5605 5604 5604 5603 5602 5602 5601 5601 5600 5599 5598 5598 5597 5597 5596 5596 5595 5594 5594 5593 5593 5592 5591 5591 5591
5609 5610 5611 5612 5613 5614 5615 5615 5615 5614 5614 5615 5615 5616 5616 5616 5617 5617 5617 5617 5617 5617 5617 5617 5617 5617 5617 5616 5616 5616 5615 5615 5615 5614 5614 5613 5613 5612 5612 5611 5611 5610 5610 5610 5609 5609 5608 5608 5608 5607 5607 5606 5606 5605 5604 5603 5603 5602 5601 5601 5601 5600 5599 5599 5598 5597 5596 5596 5595 5594 5594 5593 5592 5591 5591 5590 5589 5589 5588 5587 5587 5586 5586 5585 5584 5584
5608 5609 5610 5611 5611 5612 5612 5612 5612 5612 5612 5612 5612 5613 5614 5614 5614 5615 5615 5615 5615 5614 5614 5614 5614 5613 5613 5613 5612 5611 5611 5611 5610 5610 5609 5609 5608 5608 5607 5606 5606 5606 5605 5605 5604 5604 5604 5603 5603 5602 5602 5601 5601 5600 5599 5598 5598 5597 5596 5596 5595 5595 5594 5593 5592 5592 5591 5590 5590 5589 5588 5587 5586 5586 5585 5584 5583 5582 5582 5581 5580 5580 5579 5578 5577 5577
5606 5607 5608 5609 5609 5610 5610 5610 5610 5610 5610 5610 5610 5611 5611 5611 5612 5612 5612 5612 5612 5612 5611 5611 5611 5610 5609 5609 5608 5608 5607 5606 5606 5606 5605 5604 5604 5603 5602 5602 5601 5601 5600 5600 5600 5600 5599 5599 5598 5598 5597 5596 5596 5595 5594 5593 5593 5592 5591 5591 5590 5589 5588 5588 5587 5586 5585 5585 5584 5583 5582 5581 5580 5579 5578 5577 5577 5576 5575 5574 5573 5573 5572 5571 5570 5570
5605 5606 5607 5608 5608 5608 5608 5608 5608 5608 5608 5608 5608 5608 5609 5609 5609 5609 5609 5609 5610 5610 5609 5608 5607 5606 5606 5605 5605 5604 5603 5603 5602 5601 5601 5600 5599 5599 5598 5597 5597 5596 5596 5596 5595 5595 5595 5594 5593 5593 5592 5591 5591 5590 5589 5588 5587 5587 5586 5585 5584 5584 5583 5582 5581 5580 5580 5579 5578 5577 5576 5575 5574 5573 5572 5571 5570 5569 5568 5568 5567 5566 5565 5564 5563 5562
5605 5605 5606 5606 5607 5607 5607 5607 5607 5607 5607 5606 5606 5606 5606 5607 5607 5607 5606 5606 5606 5606 5606 5605 5604 5603 5602 5601 5601 5600 5600 5599 5598 5597 5596 5596 5595 5595 5594 5593 5593 5592 5592 5591 5591 5591 5590 5589 5588 5587 5587 5586 5585 5585 5584 5583 5582 5581 5581 5580 5579 5578 5577 5576 5576 5575 5574 5573 5572 5571 5570 5569 5568 5567 5566 5565 5564 5563 5562 5561 5560 5559 5558 5557 5556 5555
5604 5605 5605 5605 5606 5606 5606 5606 5606 5605 5605 5605 5605 5605 5605 5605 5604 5604 5604 5604 5603 5603 5602 5601 5601 5600 5599 5598 5597 5596 5596 5595 5594 5593 5592 5591 5591 5591 5590 5589 5589 5588 5588 5587 5586 5586 5586 5585 5583 5582 5582 5581 5580 5580 5579 5578 5577 5576 5575 5574 5573 5572 5571 5571 5570 5569 5568 5567 5566 5565 5564 5562 5561 5560 5559 5558 5557 5556 5555 5554 5553 5552 5551 5550 5548 5547
5603 5603 5603 5604 5604 5604 5604 5604 5604 5603 5603 5603 5603 5603 5602 5602 5602 5601 5601 5601 5600 5600 5599 5598 5597 5596 5595 5594 5593 5593 5592 5591 5591 5590 5588 5587 5587 5587 5586 5585 5584 5584 5583 5583 5582 5581 5581 5580 5578 5577 5577 5576 5575 5574 5574 5573 5572 5571 5570 5569 5568 5567 5566 5565 5564 5563 5562 5561 5560 5559 5557 5556 5555 5554 5553 5551 5550 5549 5548 5547 5546 5545 5543 5542 5541 5540
5601 5601 5601 5601 5602 5602 5602 5602 5601 5601 5601 5601 5601 5600 5600 5600 5600 5599 5598 5597 5597 5596 5595 5594 5593 5592 5591 5591 5590 5589 5588 5587 5587 5586 5585 5583 5583 5583 5583 5581 5580 5579 5579 5578 5577 5576 5576 5575 5574 5573 5572 5571 5570 5569 5568 5567 5566 5566 5564 5563 5562 5561 5560 5559 5558 5557 5556 5555 5554 5552 5551 5550 5549 5547 5546 5545 5544 5543 5541 5540 5539 5538 5536 5535 5534 5533
5600 5600 5600 5599 5599 5600 5600 5600 5599 5599 5599 5599 5598 5598 5598 5597 5597 5596 5596 5595 5594 5593 5592 5591 5590 5589 5588 5587 5586 5586 5585 5584 5583 5582 5581 5580 5579 5579 5579 5577 5576 5575 5574 5574 5573 5572 5571 5570 5569 5568 5567 5566 5565 5564 5563 5562 5561 5560 5559 5558 5556 5556 5555 5553 5552 5551 5550 5549 5548 5546 5545 5544 5542 5541 5540 5539 5537 5536 5535 5534 5532 5531 5530 5529 5528 5526
5599 5599 5599 5598 5598 5598 5598 5598 5598 5597 5597 5597 5596 5596 5596 5595 5594 5593 5592 5591 5591 5590 5588 5587 5586 5585 5584 5583 5582 5582 5581 5580 5579 5578 5577 5576 5576 5575 5575 5573 5571 5570 5570 5569 5568 5567 5566 5565 5564 5563 5562 5561 5560 5559 5557 5556 5555 5554 5553 5552 5551 5550 5549 5548 5546 5546 5544 5543 5542 5541 5539 5538 5536 5535 5534 5533 5531 5530 5529 5528 5526 5525 5524 5523 5522 5521
5599 5599 5598 5598 5598 5598 5597 5597 5597 5596 5596 5595 5595 5594 5593 5592 5591 5591 5590 5589 5587 5586 5585 5584 5583 5582 5581 5580 5579 5578 5578 5577 5576 5574 5574 5572 5572 5571 5571 5569 5567 5566 5565 5564 5563 5562 5561 5560 5558 5558 5556 5556 5554 5553 5552 5551 5549 5548 5547 5546 5545 5544 5543 5542 5541 5540 5538 5537 5536 5535 5533 5532 5531 5530 5529 5527 5526 5525 5524 5522 5521 5520 5519 5517 5516 5515
5598 5598 5597 5597 5597 5596 5596 5596 5595 5594 5593 5592 5592 5591 5590 5589 5588 5587 5586 5586 5584 5583 5582 5581 5580 5579 5578 5577 5576 5575 5574 5573 5572 5571 5569 5569 5568 5567 5566 5564 5562 5561 5560 5559 5558 5557 5556 5554 5553 5552 5551 5550 5549 5547 5546 5545 5544 5542 5541 5540 5539 5538 5537 5536 5535 5534 5533 5531 5530 5529 5528 5527 5526 5525 5523 5522 5521 5520 5518 5517 5516 5515 5514 5512 5511 5510
5597 5596 5596 5595 5595 5594 5593 5593 5592 5591 5590 5590 5589 5588 5587 5586 5586 5585 5584 5582 5581 5580 5579 5578 5577 5576 5575 5574 5572 5571 5571 5569 5568 5566 5565 5564 5563 5562 5561 5559 5557 5556 5555 5554 5553 5552 5550 5549 5547 5546 5546 5544 5543 5542 5540 5539 5538 5537 5536 5535 5534 5533 5531 5531 5529 5528 5527 5526 5525 5524 5523 5522 5521 5520 5518 5517 5516 5515 5513 5512 5511 5510 5509 5507 5506 5505
5595 5595 5594 5593 5592 5592 5591 5591 5590 5589 5588 5587 5586 5586 5585 5584 5583 5582 5581 5580 5578 5577 5576 5575 5573 5572 5571 5570 5569 5567 5567 5565 5564 5562 5561 5559 5558 5557 5556 5555 5552 5551 5550 5549 5547 5546 5545 5543 5542 5541 5540 5539 5537 5536 5535 5533 5532 5531 5530 5529 5528 5527 5526 5525 5524 5523 5522 5521 5520 5519 5518 5517 5516 5515 5513 5512 5511 5510 5509 5507 5506 5505 5504 5502 5501 5500
5593 5593 5592 5591 5590 5590 5589 5588 5587 5586 5586 5585 5584 5583 5582 5581 5580 5579 5578 5576 5575 5574 5572 5571 5570 5568 5567 5566 5565 5564 5562 5561 5559 5557 5556 5554 5553 5552 5552 5550 5548 5546 5544 5543 5542 5541 5539 5538 5536 5535 5534 5533 5532 5530 5529 5528 5527 5526 5525 5524 5523 5522 5521 5520 5519 5518 5517 5516 5515 5514 5513 5512 5511 5510 5509 5507 5506 5505 5504 5502 5501 5500 5499 5498 5496 5495
5592 5591 5590 5590 5589 5588 5587 5586 5585 5584 5583 5582 5581 5580 5579 5577 5576 5575 5574 5572 5571 5570 5569 5567 5566 5565 5563 5562 5561 5559 5558 5556 5555 5553 5551 5550 5548 5547 5546 5545 5543 5541 5539 5538 5537 5535 5534 5532 5531 5530 5529 5528 5526 5525 5524 5522 5521 5520 5519 5518 5517 5516 5516 5515 5514 5513 5512 5511 5510 5509 5508 5507 5506 5505 5504 5502 5501 5500 5499 5498 5496 5495 5494 5493 5491 5490
5590 5589 5588 5587 5586 5586 5585 5584 5583 5582 5581 5579 5578 5577 5576 5574 5573 5571 5570 5569 5567 5566 5565 5564 5562 5561 5559 5558 5557 5555 5554 5552 5550 5548 5546 5545 5543 5542 5541 5540 5538 5536 5534 5532 5531 5530 5529 5527 5526 5525 5524 5523 5521 5520 5518 5517 5516 5515 5514 5513 5512 5511 5511 5510 5509 5508 5507 5506 5505 5504 5503 5502 5501 5500 5499 5498 5496 5495 5494 5493 5491 5490 5489 5488 5486 5485
5588 5587 5586 5585 5584 5583 5582 5581 5580 5579 5577 5576 5575 5574 5572 5571 5569 5568 5566 5565 5564 5563 5561 5559 5558 5556 5555 5554 5553 5551 5550 5548 5546 5544 5542 5540 5538 5536 5536 5535 5534 5531 5529 5527 5526 5525 5524 5522 5521 5520 5519 5517 5516 5514 5513 5512 5511 5510 5509 5508 5507 5506 5505 5505 5504 5503 5502 5501 5501 5500 5499 5497 5496 5495 5494 5493 5492 5491 5489 5488 5487 5486 5484 5483 5481 5480
5586 5585 5583 5582 5581 5580 5579 5578 5577 5576 5574 5573 5572 5570 5569 5567 5566 5564 5563 5562 5561 5559 5557 5555 5554 5552 5551 5550 5548 5547 5546 5543 5541 5539 5537 5535 5533 5531 5530 5530 5528 5526 5524 5522 5521 5520 5518 5516 5515 5514 5513 5511 5510 5509 5508 5506 5506 5505 5504 5503 5502 5501 5500 5500 5499 5498 5497 5496 5496 5495 5494 5493 5492 5491 5490 5488 5487 5486 5485 5483 5482 5481 5479 5478 5476 5475
5583 5582 5581 5580 5579 5577 5576 5575 5574 5572 5571 5570 5568 5567 5566 5564 5562 5561 5559 5558 5556 5555 5553 5551 5549 5548 5546 5545 5544 5542 5541 5539 5537 5535 5532 5531 5528 5526 5525 5524 5523 5521 5519 5517 5515 5513 5513 5511 5510 5508 5507 5506 5505 5504 5502 5501 5501 5500 5499 5498 5497 5496 5495 5495 5494 5493 5492 5491 5491 5490 5489 5488 5487 5486 5485 5484 5483 5481 5480 5479 5477 5476 5475 5473 5471 5470
5581 5579 5578 5577 5576 5575 5573 5572 5571 5569 5568 5566 5565 5563 5562 5560 5559 5557 5555 5554 5552 5550 5548 5547 5545 5543 5541 5540 5538 5537 5536 5535 5533 5531 5528 5526 5523 5520 5520 5519 5517 5515 5514 5512 5509 5507 5506 5506 5505 5503 5502 5500 5499 5498 5497 5496 5496 5495 5494 5493 5492 5491 5491 5490 5489 5488 5487 5487 5486 5485 5485 5484 5483 5481 5481 5479 5478 5477 5476 5474 5473 5471 5470 5469 5467 5466
5578 5577 5576 5574 5573 5572 5570 5569 5567 5566 5564 5563 5561 5560 5558 5556 5555 5553 5551 5549 5548 5546 5544 5542 5540 5539 5537 5535 5533 5532 5531 5531 5529 5526 5524 5521 5518 5515 5515 5513 5511 5510 5509 5507 5505 5502 5500 5500 5499 5499 5497 5495 5494 5493 5492 5491 5490 5490 5489 5488 5487 5486 5486 5485 5484 5483 5483 5482 5481 5481 5480 5479 5478 5477 5476 5475 5473 5472 5471 5469 5468 5466 5465 5464 5462 5461
5575 5574 5572 5571 5570 5569 5567 5566 5564 5562 5561 5559 5557 5556 5554 5552 5550 5548 5546 5545 5543 5541 5539 5537 5536 5534 5532 5530 5528 5526 5525 5525 5524 5522 5520 5517 5513 5511 5510 5508 5506 5505 5504 5503 5501 5498 5495 5494 5493 5493 5493 5491 5489 5488 5487 5486 5486 5485 5484 5483 5482 5481 5481 5480 5479 5479 5478 5477 5476 5476 5475 5474 5473 5472 5471 5470 5469 5467 5466 5465 5463 5462 5460 5459 5458 5456
5572 5571 5570 5568 5567 5565 5564 5562 5561 5559 5557 5556 5554 5552 5550 5548 5546 5544 5542 5540 5538 5536 5535 5533 5531 5529 5527 5525 5523 5521 5520 5519 5519 5517 5516 5513 5509 5506 5505 5504 5502 5500 5498 5498 5496 5494 5492 5489 5488 5488 5488 5486 5485 5483 5482 5482 5481 5480 5480 5479 5477 5476 5476 5475 5475 5474 5473 5472 5471 5471 5470 5469 5468 5467 5466 5465 5464 5462 5461 5460 5458 5457 5456 5454 5453 5452
5570 5568 5566 5565 5563 5562 5560 5558 5557 5555 5553 5551 5550 5548 5546 5544 5541 5540 5537 5536 5534 5532 5530 5528 5526 5524 5521 5520 5518 5516 5515 5514 5513 5512 5510 5508 5505 5502 5500 5499 5497 5495 5493 5492 5491 5490 5489 5486 5484 5482 5482 5481 5480 5479 5478 5477 5476 5476 5475 5474 5473 5472 5471 5471 5470 5469 5468 5467 5466 5466 5465 5464 5463 5462 5461 5461 5459 5458 5456 5455 5453 5452 5451 5449 5448 5447
5566 5565 5563 5562 5560 5558 5556 5555 5553 5551 5549 5547 5546 5544 5541 5539 5537 5535 5533 5531 5529 5527 5525 5523 5521 5519 5516 5514 5512 5510 5509 5508 5507 5506 5505 5502 5500 5497 5495 5493 5492 5491 5489 5488 5487 5486 5485 5483 5481 5479 5477 5476 5475 5474 5473 5472 5472 5471 5471 5470 5469 5467 5466 5466 5465 5465 5464 5463 5462 5461 5460 5459 5458 5458 5457 5456 5455 5453 5452 5450 5449 5447 5446 5445 5444 5443
5564 5562 5560 5559 5557 5555 5553 5551 5549 5547 5545 5543 5541 5539 5537 5535 5533 5531 5528 5526 5524 5522 5520 5518 5516 5513 5511 5509 5506 5504 5502 5501 5501 5500 5499 5497 5495 5493 5491 5488 5487 5486 5485 5484 5483 5482 5481 5479 5478 5477 5475 5473 5471 5470 5469 5468 5467 5466 5466 5465 5464 5463 5462 5461 5461 5460 5459 5458 5457 5456 5455 5454 5454 5453 5452 5451 5450 5449 5447 5446 5444 5443 5442 5441 5440 5439
5561 5559 5557 5555 5553 5551 5550 5548 5546 5544 5541 5539 5537 5535 5533 5531 5528 5526 5524 5521 5519 5517 5514 5512 5510 5507 5505 5503 5501 5499 5496 5495 5494 5494 5493 5491 5490 5488 5486 5484 5482 5481 5481 5479 5478 5478 5477 5476 5475 5474 5473 5471 5468 5466 5465 5464 5463 5462 5461 5461 5460 5459 5458 5457 5456 5456 5455 5454 5453 5451 5451 5450 5449 5448 5447 5446 5446 5444 5443 5441 5440 5439 5437 5436 5435 5435
5557 5556 5554 5552 5550 5548 5546 5544 5542 5540 5537 5535 5533 5531 5529 5526 5524 5521 5519 5516 5514 5512 5509 5506 5504 5502 5499 5497 5495 5493 5491 5489 5488 5487 5487 5486 5484 5483 5481 5479 5478 5477 5476 5475 5474 5474 5473 5472 5471 5470 5469 5468 5466 5465 5462 5461 5460 5458 5457 5456 5456 5455 5453 5453 5452 5451 5451 5449 5448 5447 5446 5446 5445 5444 5443 5442 5441 5440 5439 5437 5436 5435 5433 5432 5431 5430
5554 5552 5550 5548 5546 5544 5542 5540 5538 5536 5533 5531 5529 5526 5524 5522 5519 5517 5514 5512 5509 5506 5504 5501 5498 5496 5494 5491 5489 5487 5486 5484 5483 5481 5481 5480 5479 5478 5477 5475 5473 5472 5472 5471 5471 5470 5469 5468 5467 5466 5466 5465 5464 5462 5461 5459 5457 5456 5454 5452 5451 5451 5449 5448 5448 5447 5446 5445 5444 5443 5442 5441 5441 5440 5439 5438 5437 5436 5434 5433 5431 5430 5429 5428 5427 5426
5550 5548 5546 5544 5542 5540 5538 5536 5533 5531 5529 5526 5524 5522 5519 5517 5514 5512 5509 5507 5504 5501 5498 5496 5493 5491 5488 5486 5484 5482 5481 5479 5477 5476 5475 5474 5473 5472 5472 5471 5469 5468 5467 5467 5466 5466 5465 5464 5463 5463 5462 5461 5460 5459 5458 5457 5455 5453 5451 5450 5448 5447 5446 5445 5444 5443 5442 5441 5440 5439 5438 5437 5436 5436 5435 5434 5433 5431 5430 5429 5427 5426 5425 5424 5423 5422
5546 5545 5543 5541 5538 5536 5534 5531 5529 5526 5524 5522 5519 5517 5515 5512 5509 5506 5504 5501 5499 5496 5493 5490 5488 5485 5483 5481 5479 5477 5475 5474 5472 5471 5470 5469 5468 5467 5466 5466 5465 5464 5463 5462 5461 5461 5461 5460 5459 5458 5458 5457 5456 5456 5455 5454 5452 5451 5449 5448 5446 5444 5443 5441 5440 5438 5437 5436 5436 5435 5434 5433 5432 5431 5430 5429 5428 5427 5426 5425 5423 5422 5421 5420 5419 5418
5543 5541 5539 5537 5534 5532 5530 5527 5525 5522 5520 5517 5515 5512 5509 5507 5504 5501 5498 5496 5493 5490 5488 5485 5482 5480 5477 5475 5473 5472 5470 5469 5467 5466 5465 5464 5463 5462 5462 5461 5460 5459 5458 5458 5457 5456 5456 5456 5455 5454 5454 5453 5453 5452 5451 5450 5448 5447 5446 5445 5443 5442 5440 5438 5436 5435 5433 5432 5431 5431 5429 5429 5428 5427 5426 5425 5424 5423 5421 5420 5419 5418 5416 5416 5415 5414
5540 5537 5535 5533 5530 5528 5525 5523 5520 5518 5515 5512 5510 5507 5504 5501 5499 5496 5493 5490 5487 5485 5482 5480 5477 5475 5472 5470 5468 5466 5465 5464 5463 5461 5460 5459 5458 5458 5457 5456 5455 5455 5454 5453 5452 5452 5451 5451 5451 5450 5449 5449 5449 5448 5447 5446 5445 5443 5442 5441 5440 5439 5437 5435 5433 5431 5430 5428 5427 5426 5425 5424 5424 5423 5422 5421 5420 5418 5417 5416 5415 5414 5412 5411 5410 5410
5536 5534 5531 5529 5526 5524 5521 5519 5516 5513 5511 5508 5505 5502 5499 5496 5493 5491 5488 5485 5482 5480 5477 5475 5472 5470 5467 5465 5463 5461 5460 5459 5458 5457 5456 5455 5454 5453 5452 5451 5451 5450 5450 5449 5448 5447 5447 5446 5446 5445 5445 5445 5444 5444 5443 5441 5440 5439 5437 5436 5436 5435 5433 5432 5430 5428 5426 5424 5423 5422 5421 5420 5419 5419 5418 5417 5415 5414 5412 5411 5410 5409 5408 5407 5406 5406
5532 5530 5527 5525 5522 5520 5517 5514 5511 5509 5506 5503 5500 5497 5494 5491 5488 5486 5483 5480 5477 5475 5472 5470 5467 5465 5462 5460 5458 5456 5455 5454 5453 5452 5451 5450 5449 5448 5447 5447 5446 5446 5445 5445 5444 5443 5443 5442 5441 5441 5440 5440 5440 5439 5438 5437 5436 5434 5433 5431 5431 5430 5429 5427 5426 5424 5422 5420 5419 5417 5416 5416 5415 5414 5413 5412 5411 5409 5408 5407 5406 5405 5404 5403 5402 5401
5528 5526 5523 5521 5518 5515 5513 5510 5507 5504 5501 5498 5496 5493 5490 5487 5484 5481 5478 5476 5473 5470 5467 5465 5463 5460 5457 5456 5454 5452 5451 5449 5448 5447 5446 5446 5445 5444 5443 5442 5441 5441 5441 5440 5440 5439 5438 5438 5437 5436 5436 5436 5435 5434 5433 5432 5431 5430 5429 5427 5426 5425 5424 5422 5421 5419 5417 5416 5415 5413 5412 5411 5410 5410 5409 5408 5406 5405 5404 5403 5401 5401 5399 5398 5398 5397
5524 5522 5519 5516 5514 5511 5509 5506 5503 5500 5497 5494 5491 5488 5485 5482 5479 5477 5474 5471 5469 5466 5463 5461 5458 5456 5453 5451 5450 5448 5446 5445 5443 5442 5441 5441 5440 5439 5439 5438 5437 5436 5436 5435 5435 5435 5434 5434 5433 5432 5431 5431 5430 5430 5428 5427 5426 5425 5424 5423 5421 5420 5418 5417 5416 5414 5412 5411 5410 5408 5407 5406 5405 5405 5404 5403 5402 5401 5399 5398 5397 5396 5395 5394 5393 5393
5520 5518 5515 5512 5510 5507 5504 5501 5498 5495 5492 5489 5487 5484 5481 5478 5475 5472 5470 5467 5464 5462 5459 5456 5454 5452 5449 5447 5446 5444 5442 5441 5439 5438 5437 5436 5436 5435 5434 5433 5433 5432 5432 5431 5431 5430 5430 5429 5428 5428 5427 5426 5426 5425 5424 5422 5421 5420 5419 5418 5417 5415 5414 5412 5410 5408 5407 5406 5404 5403 5402 5401 5400 5399 5398 5398 5397 5396 5395 5394 5393 5392 5391 5390 5389 5389
5516 5513 5511 5508 5506 5502 5500 5496 5494 5491 5488 5485 5482 5479 5477 5474 5471 5469 5466 5463 5460 5457 5455 5452 5450 5447 5445 5443 5442 5440 5439 5437 5436 5434 5433 5432 5431 5430 5430 5429 5428 5428 5427 5427 5426 5426 5425 5425 5424 5423 5423 5422 5421 5419 5419 5418 5416 5415 5414 5413 5411 5410 5408 5407 5405 5403 5401 5400 5399 5397 5396 5395 5394 5394 5393 5392 5392 5391 5390 5389 5388 5387 5386 5386 5385 5385
5512 5509 5506 5504 5501 5498 5495 5492 5489 5486 5483 5481 5478 5475 5472 5470 5467 5465 5462 5459 5456 5453 5451 5448 5446 5443 5441 5439 5438 5436 5435 5434 5432 5431 5429 5428 5427 5426 5425 5425 5424 5423 5423 5422 5422 5421 5421 5421 5420 5419 5418 5416 5415 5414 5413 5413 5412 5410 5409 5407 5406 5405 5403 5401 5400 5398 5396 5394 5393 5392 5391 5389 5388 5387 5387 5386 5386 5386 5386 5385 5384 5383 5382 5381 5381 5381
5508 5505 5502 5500 5497 5494 5491 5488 5485 5482 5479 5476 5474 5471 5468 5466 5463 5460 5458 5455 5452 5449 5446 5444 5442 5439 5437 5436 5434 5433 5431 5430 5429 5427 5426 5425 5424 5423 5421 5421 5420 5420 5419 5419 5418 5418 5417 5416 5416 5415 5413 5411 5410 5409 5408 5407 5406 5405 5404 5402 5400 5399 5397 5396 5394 5392 5390 5389 5387 5386 5385 5383 5382 5381 5381 5381 5380 5381 5381 5381 5380 5379 5378 5377 5377 5376
5504 5501 5498 5495 5492 5489 5486 5483 5480 5477 5475 5472 5469 5467 5464 5461 5459 5456 5453 5451 5448 5445 5442 5440 5438 5436 5434 5432 5430 5429 5428 5426 5425 5424 5422 5421 5420 5419 5418 5417 5417 5416 5416 5415 5414 5414 5413 5412 5412 5411 5409 5407 5405 5404 5403 5402 5401 5400 5399 5397 5395 5393 5391 5389 5388 5386 5385 5383 5381 5380 5379 5377 5376 5376 5375 5375 5375 5375 5376 5376 5376 5375 5374 5373 5373 5372